Location: Hamilton
(43.2500°N, 79.8330°W)
Time: 15:55:42
(UTC-04:00)

Amateur Radio Satellites - All Passes

Search period start: 29 June 2016 15:25
Search period end: 30 June 2016 15:25
Location: Hamilton, 43.2500°N, 79.8330°W

Satellite Date Start Highest point End Downlink Frequencies (MHz)
Time Altitude Azimuth
RS-15 29 Jun 15:35:27 15:45:41 33° 336° (NNW) 15:56:21 29.354- 29.394
AO-7 29 Jun 15:37:38 15:45:52 68° 67° (ENE) 15:54:09 29.400- 29.500
BEESAT 29 Jun 15:45:15 15:50:04 75° 103° (ESE) 15:54:51 436.000
ISS 29 Jun 15:45:35 15:48:43 44° 219° (SW) 15:51:51 145.825
ITUPSAT 1 29 Jun 15:46:57 15:51:47 76° 103° (ESE) 15:56:34 437.325
TISAT 1 29 Jun 16:04:03 16:06:05 13° 298° (WNW) 16:08:08 437.305
MOZHAYETS 4 29 Jun 16:16:24 16:19:42 19° 92° (E) 16:22:58
KKS-1 29 Jun 16:18:47 16:22:07 20° 94° (E) 16:25:25 437.445
SO-50 29 Jun 16:21:14 16:26:06 69° 121° (ESE) 16:30:57 436.795
YUBILEINY 29 Jun 16:23:29 16:26:27 12° 308° (NW) 16:29:25 435.215
HORYU 2 29 Jun 16:42:40 16:46:42 35° 69° (ENE) 16:50:46 437.375
NOAA 15 29 Jun 16:44:36 16:45:46 11° 55° (NE) 16:46:57 137.62
Cosmos 2504 29 Jun 16:47:26 16:53:43 23° 298° (WNW) 17:00:20 435.465 / 435.565
STARS 29 Jun 16:48:06 16:51:27 21° 94° (E) 16:54:48 437.465
ITAMSAT 1 29 Jun 16:49:03 16:52:05 15° 270° (W) 16:55:08 435.822/435.867
SWISSCUBE 29 Jun 16:58:43 17:02:18 21° 296° (WNW) 17:05:52 437.505
Cubesat XI-IV 29 Jun 17:22:56 17:26:22 18° 60° (ENE) 17:29:49 437.490
BEESAT 29 Jun 17:24:46 17:27:14 14° 300° (WNW) 17:29:42 436.000
NOAA 18 29 Jun 17:25:20 17:29:22 21° 60° (ENE) 17:33:24 137.9125
ITUPSAT 1 29 Jun 17:26:33 17:28:59 14° 301° (WNW) 17:31:26 437.325
BRITE-PL 29 Jun 17:28:35 17:32:15 21° 67° (ENE) 17:35:45 437.365/2234.400
AO-7 29 Jun 17:32:18 17:39:12 28° 266° (W) 17:46:10 29.400- 29.500
Cosmos 2499 29 Jun 17:37:13 17:40:46 13° 72° (ENE) 17:44:24 435.465 / 435.565
CUBESAT XI-V 29 Jun 17:46:45 17:50:07 20° 92° (E) 17:53:28 437.345
AIST 1 29 Jun 17:49:51 17:54:11 82° 281° (W) 17:58:30
MOZHAYETS 4 29 Jun 17:52:39 17:57:05 46° 289° (WNW) 18:01:30
RS-15 29 Jun 17:53:23 18:03:17 27° 11° (NNE) 18:13:20 29.354- 29.394
KKS-1 29 Jun 17:54:40 17:58:49 40° 290° (WNW) 18:02:58 437.445
CUTE-I 29 Jun 17:55:22 18:00:04 32° 66° (ENE) 18:04:48 437.470
GOMX 1 29 Jun 17:57:25 18:00:22 17° 65° (ENE) 18:03:14 467.674
SO-50 29 Jun 18:03:19 18:07:03 21° 320° (NW) 18:10:47 436.795
CUSAT 1 29 Jun 18:13:37 18:16:08 17° 65° (ENE) 18:18:19 437.405
NOAA 15 29 Jun 18:19:20 18:24:36 71° 73° (ENE) 18:29:53 137.62
HORYU 2 29 Jun 18:19:50 18:23:19 23° 266° (W) 18:26:52 437.375
GONETS M04 29 Jun 18:20:47 18:28:44 42° 87° (E) 18:36:40
STARS 29 Jun 18:23:51 18:27:56 38° 290° (WNW) 18:32:00 437.465
DANDE 29 Jun 18:45:59 18:49:45 21° 63° (ENE) 18:52:50 436.750
DOVE 4 29 Jun 18:51:15 18:54:50 27° 69° (ENE) 18:58:21 437.250
LilacSat-2 29 Jun 18:55:35 18:59:21 73° 258° (WSW) 19:03:11 437.200
Cubesat XI-IV 29 Jun 19:00:31 19:05:51 71° 257° (WSW) 19:11:14 437.490
NOAA 18 29 Jun 19:04:11 19:09:34 59° 258° (WSW) 19:15:01 137.9125
BRITE-PL 29 Jun 19:05:43 19:10:31 45° 261° (W) 19:15:00 437.365/2234.400
CUBESAT XI-V 29 Jun 19:23:19 19:27:42 43° 289° (WNW) 19:32:03 437.345
Cosmos 2499 29 Jun 19:23:49 19:32:05 69° 93° (E) 19:40:50 435.465 / 435.565
GOMX 1 29 Jun 19:33:45 19:38:11 48° 261° (W) 19:42:23 467.674
STRAND 1 29 Jun 19:34:35 19:38:10 19° 92° (E) 19:41:42 437.568
CUTE-I 29 Jun 19:35:10 19:40:02 35° 263° (W) 19:44:57 437.470
HO-68 29 Jun 19:37:57 19:44:36 43° 64° (ENE) 19:51:17 435.675
CINEMA 3 29 Jun 19:38:35 19:41:57 24° 67° (ENE) 19:45:20 145.822/145.860
CUSAT 1 29 Jun 19:55:37 19:58:09 19° 273° (W) 20:00:20 437.405
NOAA 15 29 Jun 20:01:54 20:04:54 15° 270° (W) 20:07:54 137.62
RS-15 29 Jun 20:07:33 20:19:33 53° 43° (NE) 20:31:29 29.354- 29.394
COMPASS 1 29 Jun 20:09:29 20:12:54 25° 68° (ENE) 20:16:20 437.405
CANX-2 29 Jun 20:11:30 20:15:41 57° 74° (ENE) 20:19:56 2200.000
UWE-3 29 Jun 20:14:12 20:16:16 14° 62° (ENE) 20:18:24 435.000/436.395/437.385
GONETS M04 29 Jun 20:17:14 20:25:27 45° 287° (WNW) 20:33:44
DANDE 29 Jun 20:28:32 20:32:46 31° 272° (W) 20:36:05 436.750
DOVE 4 29 Jun 20:28:52 20:32:30 27° 264° (W) 20:36:05 437.250
CUTE 1.7 + AOD 2 29 Jun 20:31:11 20:35:28 82° 75° (ENE) 20:39:47 437.475
SEEDS 29 Jun 20:33:00 20:37:12 62° 75° (ENE) 20:41:26 437.485
AUBIESAT-1 29 Jun 20:44:04 20:46:55 27° 64° (ENE) 20:49:49 437.475
CUBEBUG 2 29 Jun 21:03:20 21:07:27 62° 74° (ENE) 21:11:41 437.445
AAUSAT CUBESAT 2 29 Jun 21:08:36 21:12:47 87° 82° (E) 21:17:02 437.432
DELFI C3 29 Jun 21:11:39 21:14:18 17° 65° (ENE) 21:16:57 145.870
STRAND 1 29 Jun 21:12:38 21:17:41 56° 289° (WNW) 21:22:42 437.568
CINEMA 3 29 Jun 21:15:25 21:19:01 28° 265° (W) 21:22:38 145.822/145.860
Cosmos 2499 29 Jun 21:18:54 21:25:58 29° 295° (WNW) 21:33:22 435.465 / 435.565
M-CUBED/EXP-1 PRIME 29 Jun 21:24:07 21:27:21 64° 253° (WSW) 21:30:37 437.505
ZACube-1 29 Jun 21:24:12 21:28:15 47° 72° (ENE) 21:32:25 437.345
HO-68 29 Jun 21:25:44 21:32:19 39° 262° (W) 21:39:00 435.675
Oscar 11 29 Jun 21:31:26 21:35:42 63° 74° (ENE) 21:40:02 145.826/435.025
FUNcube-1 29 Jun 21:40:55 21:45:05 68° 75° (ENE) 21:49:24 145.935
COMPASS 1 29 Jun 21:44:37 21:48:20 30° 264° (W) 21:52:05 437.405
UWE-3 29 Jun 21:48:03 21:52:12 61° 259° (W) 21:56:29 435.000/436.395/437.385
CANX-2 29 Jun 21:49:48 21:51:55 13° 270° (W) 21:54:02 2200.000
AO-85 29 Jun 21:51:48 21:57:10 64° 120° (ESE) 22:02:22 145.980
PRISM 29 Jun 21:52:38 21:56:43 68° 103° (ESE) 22:00:45 437.425
SEEDS 29 Jun 22:11:35 22:13:18 12° 271° (W) 22:15:02 437.485
AUBIESAT-1 29 Jun 22:19:23 22:21:31 16° 261° (W) 22:23:39 437.475
RS-15 29 Jun 22:20:26 22:32:19 57° 247° (WSW) 22:44:03 29.354- 29.394
HUMSAT D 29 Jun 22:25:59 22:30:03 52° 73° (ENE) 22:34:11 437.325/437.525
YUBILEINY 29 Jun 22:32:20 22:37:44 17° 58° (ENE) 22:43:06 435.215
ESTCUBE 1 29 Jun 22:39:25 22:42:11 16° 62° (ENE) 22:44:57 437.505/2401.250
AISAT 29 Jun 22:40:22 22:41:06 10° 59° (ENE) 22:41:49 437.250
CUBEBUG 2 29 Jun 22:43:05 22:44:33 12° 271° (W) 22:46:02 437.445
DELFI C3 29 Jun 22:45:01 22:48:50 41° 262° (W) 22:52:42 145.870
DX 1 29 Jun 22:55:07 22:56:23 11° 59° (ENE) 22:57:39 434.975-435.025
TIGRISAT 29 Jun 22:59:33 23:03:28 26° 95° (E) 23:07:24 435.000
ZACube-1 29 Jun 23:02:17 23:04:51 16° 270° (W) 23:07:26 437.345
UNISAT 6 29 Jun 23:04:57 23:09:08 31° 96° (E) 23:13:18 437.425
50 SAT 29 Jun 23:05:28 23:07:45 16° 65° (ENE) 23:10:02 437.505
Oscar 11 29 Jun 23:10:24 23:12:16 12° 271° (W) 23:14:07 145.826/435.025
SO-50 29 Jun 23:12:35 23:15:24 15° 34° (NE) 23:18:08 436.795
CUBEBUG 1 29 Jun 23:20:40 23:24:19 27° 67° (ENE) 23:27:57 437.445
FUNcube-1 29 Jun 23:20:48 23:21:52 11° 272° (W) 23:22:54 145.935
PRISM 29 Jun 23:30:03 23:31:28 12° 299° (WNW) 23:32:53 437.425
VELOX 1 29 Jun 23:32:01 23:35:57 33° 68° (ENE) 23:39:52 145.980
AO-85 29 Jun 23:33:41 23:38:04 25° 318° (NW) 23:42:19 145.980
ANTELSAT 29 Jun 23:44:23 23:49:04 79° 102° (ESE) 23:53:46 437.575/2403.000
Cosmos 2491 29 Jun 23:45:23 23:51:23 21° 78° (ENE) 23:57:21 435.465 / 435.565
HUMSAT D 30 Jun 00:03:48 00:06:01 14° 270° (W) 00:08:14 437.325/437.525
SPROUT 30 Jun 00:04:33 00:08:15 30° 69° (ENE) 00:12:01 437.525
UKube-1 30 Jun 00:05:15 00:09:23 46° 71° (ENE) 00:13:31 .
AISAT 30 Jun 00:12:28 00:16:53 89° 257° (WSW) 00:21:18 437.250
ESTCUBE 1 30 Jun 00:14:03 00:18:32 58° 259° (W) 00:23:02 437.505/2401.250
YUBILEINY 30 Jun 00:27:19 00:36:12 77° 80° (E) 00:45:03 435.215
DX 1 30 Jun 00:27:35 00:31:55 81° 256° (WSW) 00:36:17 434.975-435.025
NANOSAT C BR1 30 Jun 00:35:57 00:40:02 45° 99° (E) 00:44:07 145.865
TIGRISAT 30 Jun 00:35:59 00:40:10 34° 291° (WNW) 00:44:23 435.000
50 SAT 30 Jun 00:37:38 00:41:07 38° 262° (W) 00:44:38 437.505
RS-15 30 Jun 00:38:56 00:41:49 11° 269° (W) 00:44:44 29.354- 29.394
QB50P1 30 Jun 00:39:43 00:43:54 52° 100° (E) 00:48:03 145.935-145.965
UNISAT 6 30 Jun 00:41:45 00:45:45 29° 292° (WNW) 00:49:46 437.425
Cosmos 2504 30 Jun 00:42:46 00:50:45 35° 69° (ENE) 00:58:23 435.465 / 435.565
POPSAT HIP 1 30 Jun 00:43:03 00:47:16 56° 100° (E) 00:51:28 437.405
SO-50 30 Jun 00:51:58 00:56:41 80° 57° (ENE) 01:01:12 436.795
QB50P2 30 Jun 00:55:43 01:00:00 84° 102° (ESE) 01:04:17 145.880/145.840
DUCHIFAT 1 30 Jun 00:55:44 00:59:58 71° 101° (ESE) 01:04:13 145.980
CUBEBUG 1 30 Jun 00:56:42 01:00:31 29° 264° (W) 01:04:20 437.445
POLYITAN 1 30 Jun 00:58:20 01:02:38 86° 105° (ESE) 01:06:56 437.675
PCSat 30 Jun 01:02:54 01:03:57 11° 101° (E) 01:04:59 145.827
JAS-2 30 Jun 01:03:43 01:07:58 22° 91° (E) 01:11:58 435.910
VELOX 1 30 Jun 01:08:50 01:12:26 24° 265° (W) 01:16:03 145.980
BEESAT 30 Jun 01:18:10 01:20:08 12° 58° (ENE) 01:22:07 436.000
TISAT 1 30 Jun 01:19:12 01:23:14 51° 72° (ENE) 01:27:17 437.305
ITUPSAT 1 30 Jun 01:20:02 01:22:08 13° 59° (ENE) 01:24:15 437.325
ANTELSAT 30 Jun 01:23:04 01:25:08 13° 300° (WNW) 01:27:14 437.575/2403.000
Cosmos 2491 30 Jun 01:38:18 01:47:05 83° 277° (W) 01:55:53 435.465 / 435.565
SPROUT 30 Jun 01:40:45 01:44:14 24° 266° (W) 01:47:43 437.525
UKube-1 30 Jun 01:42:53 01:45:40 17° 268° (W) 01:48:27 .
BUGSAT 1 30 Jun 01:45:44 01:49:49 70° 285° (WNW) 01:53:56 437.445
BEESAT 3 30 Jun 01:58:36 02:01:05 16° 111° (ESE) 02:03:34 437.485
NANOSAT C BR1 30 Jun 02:12:36 02:15:26 18° 296° (WNW) 02:18:17 145.865
QB50P1 30 Jun 02:16:43 02:19:16 16° 297° (WNW) 02:21:48 145.935-145.965
POPSAT HIP 1 30 Jun 02:20:13 02:22:36 15° 297° (WNW) 02:25:00 437.405
YUBILEINY 30 Jun 02:25:30 02:32:01 24° 281° (W) 02:38:32 435.215
SWISSCUBE 30 Jun 02:27:23 02:32:06 60° 72° (ENE) 02:36:51 437.505
DUCHIFAT 1 30 Jun 02:33:28 02:35:06 12° 299° (WNW) 02:36:45 145.980
QB50P2 30 Jun 02:34:24 02:35:09 10° 300° (WNW) 02:35:53 145.880/145.840
SO-50 30 Jun 02:34:39 02:36:26 12° 253° (WSW) 02:38:12 436.795
Cosmos 2504 30 Jun 02:35:55 02:44:31 57° 270° (W) 02:52:46 435.465 / 435.565
POLYITAN 1 30 Jun 02:37:12 02:37:46 10° 300° (WNW) 02:38:20 437.675
BEESAT 2 30 Jun 02:38:36 02:41:49 24° 114° (ESE) 02:45:03 435.950
PCSat 30 Jun 02:41:00 02:46:24 79° 118° (ESE) 02:51:52 145.827
JAS-2 30 Jun 02:48:03 02:53:27 47° 291° (WNW) 02:58:27 435.910
O/OREOS (USA 219) 30 Jun 02:49:00 02:53:15 43° 107° (ESE) 02:57:31 437.305
BEESAT 30 Jun 02:52:25 02:57:13 86° 256° (WSW) 03:02:03 436.000
Oscar 19 30 Jun 02:52:53 02:58:02 79° 103° (ESE) 03:03:10 437.125/150
ITUPSAT 1 30 Jun 02:54:28 02:59:17 84° 257° (WSW) 03:04:09 437.325
TISAT 1 30 Jun 02:57:00 02:59:11 14° 269° (W) 03:01:24 437.305
KKS-1 30 Jun 03:17:57 03:21:22 22° 65° (ENE) 03:24:46 437.445
MOZHAYETS 4 30 Jun 03:19:20 03:22:48 21° 65° (ENE) 03:26:17
ITAMSAT 1 30 Jun 03:19:28 03:23:31 22° 93° (E) 03:27:31 435.822/435.867
Gurwin Techsat 1B 30 Jun 03:21:57 03:27:15 65° 102° (ESE) 03:32:32 435.225
BEESAT 3 30 Jun 03:34:36 03:38:24 47° 308° (NW) 03:42:14 437.485
AO-7 30 Jun 03:39:35 03:45:11 19° 90° (E) 03:50:45 29.400- 29.500
Cosmos 2491 30 Jun 03:39:39 03:45:23 19° 301° (WNW) 03:51:09 435.465 / 435.565
STARS 30 Jun 03:45:54 03:49:15 22° 65° (ENE) 03:52:36 437.465
AIST 1 30 Jun 03:56:09 03:59:44 26° 73° (ENE) 04:03:19
SWISSCUBE 30 Jun 04:07:29 04:10:18 15° 269° (W) 04:13:08 437.505
BEESAT 2 30 Jun 04:15:53 04:19:30 33° 311° (NW) 04:23:10 435.950
PCSat 30 Jun 04:26:29 04:30:27 20° 319° (NW) 04:34:26 145.827
O/OREOS (USA 219) 30 Jun 04:29:26 04:32:51 21° 305° (NW) 04:36:17 437.305
GONETS M04 30 Jun 04:29:43 04:36:09 22° 62° (ENE) 04:42:33
Oscar 19 30 Jun 04:33:56 04:36:42 15° 301° (WNW) 04:39:29 437.125/150
Cosmos 2504 30 Jun 04:35:32 04:35:47 10° 291° (WNW) 04:36:02 435.465 / 435.565
AO-85 30 Jun 04:44:13 04:46:29 13° 31° (NNE) 04:48:40 145.980
CUBESAT XI-V 30 Jun 04:50:59 04:54:39 23° 66° (ENE) 04:58:20 437.345
KKS-1 30 Jun 04:53:36 04:57:42 37° 262° (W) 05:01:50 437.445
MOZHAYETS 4 30 Jun 04:55:16 04:59:40 43° 262° (W) 05:04:07
ITAMSAT 1 30 Jun 04:58:12 05:03:13 48° 291° (WNW) 05:08:13 435.822/435.867
Gurwin Techsat 1B 30 Jun 05:03:05 05:06:41 19° 299° (WNW) 05:10:17 435.225
AIST 2 30 Jun 05:10:48 05:14:48 55° 120° (ESE) 05:18:51 435.215
Cosmos 2499 30 Jun 05:14:40 05:21:58 28° 65° (ENE) 05:28:54 435.465 / 435.565
STARS 30 Jun 05:21:21 05:25:23 37° 262° (W) 05:29:27 437.465
AO-7 30 Jun 05:30:33 05:39:00 90° 106° (ESE) 05:47:23 29.400- 29.500
AIST 1 30 Jun 05:33:43 05:37:16 26° 271° (W) 05:40:49
HORYU 2 30 Jun 06:08:23 06:12:52 61° 102° (ESE) 06:17:19 437.375
CUTE-I 30 Jun 06:13:42 06:15:02 11° 87° (E) 06:16:23 437.470
AO-85 30 Jun 06:23:22 06:27:56 68° 53° (NE) 06:32:05 145.980
GONETS M04 30 Jun 06:25:21 06:34:07 85° 264° (W) 06:42:53
CUBESAT XI-V 30 Jun 06:27:23 06:31:48 40° 263° (W) 06:36:14 437.345
LilacSat-2 30 Jun 06:29:54 06:31:14 11° 90° (E) 06:32:35 437.200
NOAA 15 30 Jun 06:34:04 06:38:17 24° 94° (E) 06:42:28 137.62
AIST 2 30 Jun 06:50:35 06:53:36 19° 318° (NW) 06:56:39 435.215
STRAND 1 30 Jun 06:51:09 06:55:35 30° 66° (ENE) 07:00:04 437.568
Cosmos 2499 30 Jun 07:07:10 07:15:54 70° 267° (W) 07:24:03 435.465 / 435.565
PHONESAT 2.4 30 Jun 07:07:47 07:10:23 25° 160° (SSE) 07:12:59 2401.200-2431.200
BRITE-PL 30 Jun 07:09:05 07:13:06 48° 99° (E) 07:17:11 437.365/2234.400
CUSAT 1 30 Jun 07:13:06 07:19:59 38° 93° (E) 07:25:50 437.405
Cubesat XI-IV 30 Jun 07:16:47 07:21:55 43° 98° (E) 07:27:00 437.490
AO-7 30 Jun 07:24:33 07:30:44 24° 309° (NW) 07:36:54 29.400- 29.500
NOAA 18 30 Jun 07:24:59 07:30:27 54° 101° (E) 07:35:52 137.9125
GOMX 1 30 Jun 07:33:47 07:37:47 40° 98° (E) 07:41:55 467.674
HORYU 2 30 Jun 07:46:21 07:48:56 15° 299° (WNW) 07:51:30 437.375
CUTE-I 30 Jun 07:50:26 07:55:51 86° 103° (ESE) 08:01:14 437.470
DANDE 30 Jun 07:50:36 07:58:15 41° 91° (E) 08:05:14 436.750
LilacSat-2 30 Jun 08:02:04 08:05:53 54° 286° (WNW) 08:09:41 437.200
AO-85 30 Jun 08:05:45 08:07:40 13° 253° (WSW) 08:09:31 145.980
NOAA 15 30 Jun 08:13:16 08:18:15 45° 291° (WNW) 08:23:12 137.62
CUTE 1.7 + AOD 2 30 Jun 08:16:46 08:18:52 13° 90° (E) 08:20:56 437.475
GONETS M04 30 Jun 08:24:26 08:29:34 17° 284° (WNW) 08:34:43
DOVE 4 30 Jun 08:24:57 08:29:18 66° 102° (ESE) 08:33:52 437.250
ISS 30 Jun 08:25:42 08:28:35 30° 138° (SE) 08:31:29 145.825
STRAND 1 30 Jun 08:29:59 08:34:40 35° 263° (W) 08:39:23 437.568
PRISM 30 Jun 08:42:41 08:46:45 56° 73° (ENE) 08:50:49 437.425
PHONESAT 2.4 30 Jun 08:43:43 08:46:41 49° 177° (S) 08:49:41 2401.200-2431.200
BRITE-PL 30 Jun 08:48:51 08:51:16 15° 296° (WNW) 08:53:41 437.365/2234.400
HO-68 30 Jun 08:51:36 08:58:19 40° 98° (E) 09:04:58 435.675
AAUSAT CUBESAT 2 30 Jun 08:51:44 08:53:33 12° 90° (E) 08:55:21 437.432
CUBEBUG 2 30 Jun 08:54:17 08:56:37 14° 90° (E) 08:58:58 437.445
CUSAT 1 30 Jun 08:54:51 09:02:00 43° 285° (WNW) 09:07:59 437.405
Cubesat XI-IV 30 Jun 08:57:17 09:01:46 27° 296° (WNW) 09:06:13 437.490
Cosmos 2499 30 Jun 09:03:34 09:07:12 13° 288° (WNW) 09:10:47 435.465 / 435.565
NOAA 18 30 Jun 09:06:25 09:10:43 24° 299° (WNW) 09:15:01 137.9125
CINEMA 3 30 Jun 09:07:28 09:11:59 57° 100° (E) 09:16:41 145.822/145.860
GOMX 1 30 Jun 09:12:41 09:15:39 19° 294° (WNW) 09:18:43 467.674
Oscar 11 30 Jun 09:20:17 09:21:15 11° 88° (E) 09:22:12 145.826/435.025
COMPASS 1 30 Jun 09:25:58 09:29:53 38° 97° (E) 09:33:46 437.405
FUNcube-1 30 Jun 09:29:22 09:31:33 13° 89° (E) 09:33:46 145.935
CANX-2 30 Jun 09:31:07 09:35:26 82° 283° (WNW) 09:39:42 2200.000
CUTE-I 30 Jun 09:32:17 09:35:09 15° 302° (WNW) 09:38:02 437.470
DANDE 30 Jun 09:32:55 09:40:59 49° 286° (WNW) 09:48:15 436.750
UWE-3 30 Jun 09:36:38 09:40:29 26° 94° (E) 09:44:21 435.000/436.395/437.385
PCSat 30 Jun 09:45:40 09:49:02 16° 38° (NE) 09:52:23 145.827
CUTE 1.7 + AOD 2 30 Jun 09:50:51 09:55:04 57° 286° (WNW) 09:59:14 437.475
SEEDS 30 Jun 09:51:23 09:55:39 78° 283° (WNW) 09:59:51 437.485
AUBIESAT-1 30 Jun 09:55:01 09:58:08 21° 101° (E) 10:01:23 437.475
Cosmos 2491 30 Jun 09:55:20 09:56:39 10° 50° (NE) 09:57:58 435.465 / 435.565
TIGRISAT 30 Jun 09:59:33 10:03:03 25° 66° (ENE) 10:06:39 435.000
ISS 30 Jun 10:01:50 10:04:57 40° 335° (NNW) 10:08:05 145.825
DOVE 4 30 Jun 10:04:29 10:06:33 13° 297° (WNW) 10:08:40 437.250
UNISAT 6 30 Jun 10:05:00 10:08:47 30° 68° (ENE) 10:12:38 437.425
BEESAT 3 30 Jun 10:13:55 10:16:38 17° 41° (NE) 10:19:20 437.485
PHONESAT 2.4 30 Jun 10:20:14 10:23:05 35° 193° (SSW) 10:25:56 2401.200-2431.200
PRISM 30 Jun 10:20:28 10:22:24 13° 269° (W) 10:24:19 437.425
DELFI C3 30 Jun 10:22:00 10:25:08 22° 94° (E) 10:28:14 145.870
AAUSAT CUBESAT 2 30 Jun 10:25:17 10:29:24 57° 286° (WNW) 10:33:27 437.432
CUBEBUG 2 30 Jun 10:29:02 10:33:38 66° 286° (WNW) 10:38:18 437.445
M-CUBED/EXP-1 PRIME 30 Jun 10:35:19 10:39:15 72° 108° (ESE) 10:43:30 437.505
RS-15 30 Jun 10:35:48 10:44:04 24° 99° (E) 10:52:34 29.354- 29.394
HO-68 30 Jun 10:39:21 10:46:01 43° 296° (WNW) 10:52:41 435.675
ANTELSAT 30 Jun 10:44:05 10:48:23 77° 75° (ENE) 10:52:50 437.575/2403.000
CINEMA 3 30 Jun 10:45:49 10:48:44 17° 296° (WNW) 10:51:43 145.822/145.860
ZACube-1 30 Jun 10:47:07 10:51:41 90° 332° (NNW) 10:56:18 437.345
Oscar 11 30 Jun 10:53:31 10:57:53 73° 285° (WNW) 11:02:12 145.826/435.025
BEESAT 2 30 Jun 10:55:11 10:58:28 24° 45° (NE) 11:01:43 435.950
COMPASS 1 30 Jun 11:02:09 11:05:11 20° 294° (WNW) 11:08:13 437.405
FUNcube-1 30 Jun 11:03:41 11:08:13 65° 285° (WNW) 11:12:44 145.935
UWE-3 30 Jun 11:12:48 11:16:58 34° 290° (WNW) 11:21:10 435.000/436.395/437.385
JAS-2 30 Jun 11:17:27 11:21:51 17° 57° (ENE) 11:25:59 435.910
O/OREOS (USA 219) 30 Jun 11:20:00 11:22:09 13° 49° (NE) 11:24:18 437.305
DANDE 30 Jun 11:24:14 11:25:23 10° 305° (NW) 11:26:32 436.750
PCSat 30 Jun 11:27:53 11:33:21 78° 59° (ENE) 11:38:45 145.827
NANOSAT C BR1 30 Jun 11:29:01 11:32:53 37° 70° (ENE) 11:36:46 145.865
AUBIESAT-1 30 Jun 11:29:01 11:32:39 35° 294° (WNW) 11:36:30 437.475
QB50P1 30 Jun 11:33:01 11:37:00 43° 71° (ENE) 11:41:00 145.935-145.965
TIGRISAT 30 Jun 11:35:45 11:39:36 32° 264° (W) 11:43:34 435.000
POPSAT HIP 1 30 Jun 11:36:24 11:40:24 46° 72° (ENE) 11:44:26 437.405
YUBILEINY 30 Jun 11:37:14 11:42:18 17° 75° (ENE) 11:47:24 435.215
ISS 30 Jun 11:39:35 11:42:01 19° 355° (N) 11:44:27 145.825
UNISAT 6 30 Jun 11:41:51 11:45:29 26° 265° (W) 11:49:12 437.425
HUMSAT D 30 Jun 11:43:38 11:47:59 88° 100° (E) 11:52:17 437.325/437.525
Cosmos 2491 30 Jun 11:47:29 11:55:59 53° 75° (ENE) 12:04:25 435.465 / 435.565
DUCHIFAT 1 30 Jun 11:48:22 11:52:27 57° 73° (ENE) 11:56:34 145.980
QB50P2 30 Jun 11:49:02 11:53:12 70° 75° (ENE) 11:57:25 145.880/145.840
BEESAT 3 30 Jun 11:50:46 11:54:41 58° 239° (WSW) 11:58:33 437.485
POLYITAN 1 30 Jun 11:51:40 11:55:50 72° 75° (ENE) 12:00:03 437.675
DELFI C3 30 Jun 11:56:31 12:00:00 29° 291° (WNW) 12:03:27 145.870
PHONESAT 2.4 30 Jun 11:57:54 11:59:10 12° 209° (SSW) 12:00:26 2401.200-2431.200
AISAT 30 Jun 12:02:46 12:05:29 16° 92° (E) 12:08:10 437.250
ESTCUBE 1 30 Jun 12:05:50 12:09:40 27° 95° (E) 12:13:28 437.505/2401.250
50 SAT 30 Jun 12:06:27 12:08:43 15° 92° (E) 12:10:58 437.505
M-CUBED/EXP-1 PRIME 30 Jun 12:11:55 12:13:23 12° 302° (WNW) 12:14:54 437.505
DX 1 30 Jun 12:15:54 12:18:33 16° 92° (E) 12:21:11 434.975-435.025
ZACube-1 30 Jun 12:26:06 12:27:16 11° 300° (WNW) 12:28:26 437.345
BEESAT 2 30 Jun 12:32:42 12:36:25 38° 243° (WSW) 12:40:07 435.950
Oscar 19 30 Jun 12:33:47 12:37:07 18° 61° (ENE) 12:40:27 437.125/150
BUGSAT 1 30 Jun 12:36:11 12:40:11 90° 255° (WSW) 12:44:13 437.445
RS-15 30 Jun 12:43:15 12:54:42 88° 122° (ESE) 13:06:52 29.354- 29.394
CUBEBUG 1 30 Jun 12:43:32 12:47:41 44° 99° (E) 12:51:49 437.445
VELOX 1 30 Jun 12:56:46 13:01:07 56° 101° (E) 13:05:26 145.980
O/OREOS (USA 219) 30 Jun 12:57:40 13:02:09 81° 250° (WSW) 13:06:39 437.305
JAS-2 30 Jun 12:58:26 13:06:02 80° 74° (ENE) 13:12:54 435.910
NANOSAT C BR1 30 Jun 13:05:45 13:08:44 19° 267° (W) 13:11:47 145.865
Gurwin Techsat 1B 30 Jun 13:06:51 13:10:05 17° 59° (ENE) 13:13:19 435.225
QB50P1 30 Jun 13:10:18 13:13:00 17° 268° (W) 13:15:42 145.935-145.965
PCSat 30 Jun 13:13:01 13:16:02 15° 256° (WSW) 13:19:03 145.827
POPSAT HIP 1 30 Jun 13:13:56 13:16:26 15° 268° (W) 13:18:59 437.405
ISS 30 Jun 13:16:30 13:19:14 24° 15° (NNE) 13:22:00 145.825
HUMSAT D 30 Jun 13:22:26 13:22:54 10° 300° (WNW) 13:23:21 437.325/437.525
Cosmos 2504 30 Jun 13:23:08 13:29:36 26° 80° (E) 13:36:22 435.465 / 435.565
SPROUT 30 Jun 13:24:36 13:28:47 50° 100° (E) 13:32:57 437.525
DUCHIFAT 1 30 Jun 13:26:44 13:28:31 12° 270° (W) 13:30:19 145.980
UKube-1 30 Jun 13:26:56 13:31:16 74° 103° (ESE) 13:35:33 .
QB50P2 30 Jun 13:28:51 13:29:29 10° 271° (W) 13:30:10 145.880/145.840
YUBILEINY 30 Jun 13:28:58 13:37:41 84° 96° (E) 13:46:29 435.215
AIST 2 30 Jun 13:31:06 13:35:09 49° 52° (NE) 13:39:12 435.215
AISAT 30 Jun 13:37:58 13:42:14 50° 288° (WNW) 13:46:29 437.250
50 SAT 30 Jun 13:39:08 13:42:33 35° 289° (WNW) 13:45:54 437.505
ESTCUBE 1 30 Jun 13:42:31 13:46:28 31° 292° (WNW) 13:50:24 437.505/2401.250
Cosmos 2491 30 Jun 13:44:51 13:52:28 36° 276° (W) 14:00:05 435.465 / 435.565
DX 1 30 Jun 13:50:50 13:55:01 49° 288° (WNW) 13:59:11 434.975-435.025
Oscar 19 30 Jun 14:10:48 14:15:54 65° 258° (WSW) 14:21:03 437.125/150
CUBEBUG 1 30 Jun 14:20:41 14:23:38 18° 296° (WNW) 14:26:36 437.445
SWISSCUBE 30 Jun 14:28:06 14:30:38 14° 90° (E) 14:33:08 437.505
VELOX 1 30 Jun 14:34:31 14:37:08 16° 298° (WNW) 14:39:44 145.980
TISAT 1 30 Jun 14:37:18 14:41:32 81° 103° (ESE) 14:45:45 437.305
ITAMSAT 1 30 Jun 14:38:09 14:42:56 38° 68° (ENE) 14:47:45 435.822/435.867
AO-7 30 Jun 14:39:26 14:46:32 33° 56° (NE) 14:53:40 29.400- 29.500
Gurwin Techsat 1B 30 Jun 14:44:06 14:49:25 74° 257° (WSW) 14:54:45 435.225
JAS-2 30 Jun 14:46:15 14:51:33 20° 269° (W) 14:56:34 435.910
BEESAT 30 Jun 14:52:10 14:55:55 22° 94° (E) 14:59:38 436.000
ISS 30 Jun 14:52:43 14:56:00 83° 214° (SW) 14:59:15 145.825
ITUPSAT 1 30 Jun 14:54:34 14:58:23 23° 94° (E) 15:02:11 437.325
RS-15 30 Jun 14:58:17 15:08:52 37° 330° (NNW) 15:19:56 29.354- 29.394
SPROUT 30 Jun 15:01:41 15:04:21 16° 296° (WNW) 15:07:00 437.525
UKube-1 30 Jun 15:05:04 15:06:43 12° 300° (WNW) 15:08:22 .
SO-50 30 Jun 15:07:50 15:11:29 21° 111° (ESE) 15:15:07 436.795
AIST 2 30 Jun 15:10:32 15:13:16 17° 249° (WSW) 15:16:00 435.215
